Weather History for KAEJ - February, 2014

Change the Weather History Date:

Friday, February 14, 2014

  Actual Average (KLXV) Record (KLXV)
Temperature  
Mean Temperature 38 °F -  
Max Temperature 43 °F 31 °F 49 °F (2015)
Min Temperature 32 °F 4 °F -12 °F (1993)
Degree Days  
Heating Degree Days 28 47  
Month to date heating degree days 669  
Since 1 July heating degree days 7066  
Cooling Degree Days 0 0  
Month to date cooling degree days 0  
Year to date cooling degree days 0  
Moisture  
Dew Point 24 °F    
Average Humidity 57    
Maximum Humidity 88    
Minimum Humidity 42    
Precipitation  
Precipitation 0.00 in 0.02 in 0.45 in (1977)
Month to date precipitation 0.32  
Year to date precipitation 0.94  
Sea Level Pressure  
Sea Level Pressure 30.04 in    
Wind  
Wind Speed 15 mph (West)    
Max Wind Speed 33 mph    
Max Gust Speed 41 mph    
Visibility 10 miles    
Events Snow    
T = Trace of Precipitation, MM = Missing Value Source: NWS Daily Summary

Daily Weather History Graph

Daily Weather History Graph

Search for Another Location

Airport or City:

Trip Planner

Search our weather history database for the weather conditions in past years. The results will help you decide how hot, cold, wet, or windy it might be!

Date:

Astronomy

Feb. 14, 2014 Rise Set
Actual Time 6:56 AM MST 5:41 PM MST
Civil Twilight 6:29 AM MST 6:08 PM MST
Nautical Twilight 5:58 AM MST 6:39 PM MST
Astronomical Twilight 5:27 AM MST 7:10 PM MST
Moon 5:46 PM MST (2/14) 6:25 AM MST (2/14)
Length of Visible Light 11h 38m
Length of Day
10h 44m
Full, 100% of the Moon is Illuminated
Feb 14
Full
Feb 14
Full
Feb 22
Last Quarter
Mar 1
New
Mar 8
First Quarter

Hourly Weather History & Observations

Time (MST) Temp. Windchill Dew Point Humidity Pressure Visibility Wind Dir Wind Speed Gust Speed Precip Events Conditions
12:15 AM 32.5 °F 25.5 °F 29.3 °F 88% 29.98 in 7.0 mi SSE 8.1 mph - N/A Snow Light Snow
12:35 AM 34.3 °F 24.6 °F 25.7 °F 71% 29.97 in 10.0 mi WSW 15.0 mph 19.6 mph N/A   Overcast
12:55 AM 34.3 °F 23.9 °F 26.6 °F 73% 29.97 in 10.0 mi WSW 17.3 mph 24.2 mph N/A Snow Light Snow
1:15 AM 33.3 °F 25.1 °F 27.3 °F 79% 29.98 in 10.0 mi WSW 10.4 mph 20.7 mph N/A Snow Light Snow
1:35 AM 34.0 °F 23.4 °F 25.5 °F 71% 29.99 in 10.0 mi WSW 17.3 mph 26.5 mph N/A   Overcast
1:55 AM 34.2 °F 23.3 °F 26.2 °F 73% 29.99 in 10.0 mi WSW 18.4 mph 23.0 mph N/A   Overcast
2:15 AM 33.8 °F 23.9 °F 26.6 °F 75% 30.00 in 10.0 mi WSW 15.0 mph 23.0 mph N/A   Overcast
2:35 AM 34.5 °F 27.9 °F 25.0 °F 68% 30.00 in 10.0 mi WSW 8.1 mph - N/A   Overcast
3:15 AM 35.6 °F 31.7 °F 22.6 °F 59% 30.00 in 10.0 mi WNW 4.6 mph - N/A   Overcast
3:35 AM 35.6 °F 26.2 °F 22.1 °F 58% 30.00 in 10.0 mi WSW 15.0 mph 18.4 mph N/A   Overcast
3:55 AM 35.6 °F 28.6 °F 20.7 °F 55% 30.00 in 10.0 mi WSW 9.2 mph - N/A   Overcast
4:15 AM 34.0 °F 25.5 °F 19.8 °F 56% 30.00 in 10.0 mi WSW 11.5 mph - N/A   Overcast
4:35 AM 33.8 °F 25.3 °F 19.6 °F 56% 30.01 in 10.0 mi West 11.5 mph 18.4 mph N/A   Mostly Cloudy
4:55 AM 33.3 °F 23.2 °F 19.2 °F 56% 30.00 in 10.0 mi WSW 15.0 mph - N/A   Scattered Clouds
5:15 AM 32.9 °F 22.8 °F 19.0 °F 57% 30.01 in 10.0 mi West 15.0 mph 20.7 mph N/A   Clear
5:35 AM 32.9 °F 24.1 °F 18.7 °F 56% 30.02 in 10.0 mi West 11.5 mph - N/A   Clear
5:55 AM 33.8 °F 23.5 °F 17.2 °F 51% 30.02 in 10.0 mi West 16.1 mph - N/A   Clear
6:15 AM 33.3 °F 22.8 °F 17.6 °F 53% 30.02 in 10.0 mi West 16.1 mph 23.0 mph N/A   Clear
6:35 AM 32.2 °F 20.7 °F 18.3 °F 57% 30.02 in 10.0 mi West 18.4 mph 25.3 mph N/A   Clear
6:55 AM 33.6 °F 20.5 °F 18.5 °F 54% 30.03 in 10.0 mi West 26.5 mph 31.1 mph N/A   Clear
7:15 AM 33.6 °F 21.6 °F 19.4 °F 56% 30.02 in 10.0 mi West 21.9 mph 31.1 mph N/A   Clear
7:35 AM 34.7 °F 22.5 °F 20.1 °F 55% 30.04 in 10.0 mi West 24.2 mph 32.2 mph N/A   Clear
7:55 AM 35.8 °F 24.2 °F 21.2 °F 55% 30.04 in 10.0 mi WSW 23.0 mph 31.1 mph N/A   Clear
8:15 AM 35.8 °F 27.8 °F 21.0 °F 55% 30.05 in 10.0 mi West 11.5 mph 21.9 mph N/A   Clear
8:35 AM 36.5 °F 25.4 °F 21.6 °F 55% 30.05 in 10.0 mi West 21.9 mph 27.6 mph N/A   Clear
8:55 AM 37.2 °F 28.7 °F 22.5 °F 55% 30.07 in 10.0 mi West 13.8 mph 25.3 mph N/A   Clear
9:15 AM 37.8 °F 29.4 °F 21.7 °F 53% 30.09 in 10.0 mi West 13.8 mph 25.3 mph N/A   Clear
9:35 AM 40.1 °F 33.2 °F 19.2 °F 43% 30.09 in 10.0 mi WSW 11.5 mph - N/A   Scattered Clouds
9:55 AM 39.9 °F 30.0 °F 20.7 °F 46% 30.09 in 10.0 mi WSW 21.9 mph 26.5 mph N/A   Mostly Cloudy
10:15 AM 40.1 °F 32.7 °F 21.0 °F 47% 30.09 in 10.0 mi West 12.7 mph 23.0 mph N/A   Mostly Cloudy
10:35 AM 40.8 °F 34.1 °F 21.2 °F 46% 30.09 in 10.0 mi WSW 11.5 mph 26.5 mph N/A   Scattered Clouds
10:55 AM 41.0 °F 33.9 °F 23.0 °F 49% 30.09 in 10.0 mi West 12.7 mph 25.3 mph N/A   Scattered Clouds
11:15 AM 42.3 °F 36.3 °F 22.1 °F 45% 30.08 in 10.0 mi WSW 10.4 mph 17.3 mph N/A   Mostly Cloudy
11:35 AM 42.3 °F 37.3 °F 20.3 °F 42% 30.09 in 10.0 mi WSW 8.1 mph 26.5 mph N/A   Overcast
11:55 AM 41.9 °F 36.3 °F 20.7 °F 43% 30.07 in 10.0 mi West 9.2 mph - N/A   Overcast
12:15 PM 41.4 °F 36.2 °F 21.2 °F 45% 30.07 in 10.0 mi WSW 8.1 mph 17.3 mph N/A   Overcast
12:35 PM 41.9 °F 39.0 °F 21.0 °F 43% 30.05 in 10.0 mi SSW 4.6 mph 24.2 mph N/A   Overcast
12:55 PM 41.9 °F 35.0 °F 22.6 °F 46% 30.05 in 10.0 mi WSW 12.7 mph 17.3 mph N/A   Overcast
1:15 PM 42.1 °F 37.7 °F 23.5 °F 48% 30.05 in 10.0 mi South 6.9 mph 17.3 mph N/A   Overcast
1:35 PM 42.3 °F 36.8 °F 24.4 °F 49% 30.04 in 10.0 mi WSW 9.2 mph 18.4 mph N/A   Overcast
1:55 PM 41.9 °F 32.8 °F 26.4 °F 54% 30.04 in 10.0 mi WSW 20.7 mph 25.3 mph N/A   Overcast
2:15 PM 42.4 °F 32.8 °F 25.9 °F 52% 30.03 in 10.0 mi WSW 24.2 mph 33.4 mph N/A   Overcast
2:35 PM 43.0 °F 35.4 °F 26.4 °F 52% 30.03 in 10.0 mi West 16.1 mph 34.5 mph N/A   Overcast
2:55 PM 43.0 °F 33.8 °F 27.3 °F 54% 30.04 in 10.0 mi West 23.0 mph 31.1 mph N/A   Overcast
3:15 PM 42.8 °F 34.0 °F 28.0 °F 56% 30.05 in 10.0 mi West 20.7 mph 31.1 mph N/A   Overcast
3:35 PM 42.3 °F 32.4 °F 27.7 °F 56% 30.04 in 10.0 mi West 25.3 mph 32.2 mph N/A   Overcast
3:55 PM 41.9 °F 32.1 °F 27.9 °F 58% 30.04 in 10.0 mi WSW 24.2 mph 31.1 mph N/A   Overcast
4:15 PM 41.2 °F 30.9 °F 28.2 °F 60% 30.03 in 10.0 mi WSW 25.3 mph 33.4 mph N/A   Overcast
4:35 PM 40.6 °F 30.2 °F 27.9 °F 60% 30.03 in 10.0 mi WSW 25.3 mph 35.7 mph N/A   Overcast
4:55 PM 41.0 °F 30.2 °F 27.5 °F 59% 30.03 in 10.0 mi WSW 27.6 mph 38.0 mph N/A   Overcast
5:15 PM 40.5 °F 30.0 °F 27.5 °F 60% 30.03 in 10.0 mi West 25.3 mph 38.0 mph N/A   Overcast
5:35 PM 40.5 °F 29.7 °F 27.9 °F 61% 30.02 in 10.0 mi West 26.5 mph 39.1 mph N/A   Overcast
5:55 PM 40.3 °F 28.3 °F 27.7 °F 61% 30.02 in 10.0 mi West 33.4 mph 41.4 mph N/A   Mostly Cloudy
6:15 PM 40.5 °F 29.5 °F 27.5 °F 60% 30.03 in 10.0 mi West 27.6 mph 38.0 mph N/A   Scattered Clouds
6:35 PM 40.6 °F 30.4 °F 27.0 °F 58% 30.03 in 10.0 mi West 24.2 mph 38.0 mph N/A   Clear
6:55 PM 41.2 °F 30.7 °F 26.4 °F 56% 30.04 in 10.0 mi West 26.5 mph 32.2 mph N/A   Clear
7:15 PM 41.0 °F 30.5 °F 26.8 °F 57% 30.04 in 10.0 mi WNW 26.5 mph 34.5 mph N/A   Clear
7:35 PM 41.0 °F 30.7 °F 27.1 °F 58% 30.05 in 10.0 mi West 25.3 mph 39.1 mph N/A   Clear
7:55 PM 41.0 °F 30.5 °F 27.5 °F 59% 30.05 in 10.0 mi West 26.5 mph 34.5 mph N/A   Mostly Cloudy
8:15 PM 39.2 °F 29.8 °F 28.4 °F 65% 30.05 in 10.0 mi West 18.4 mph 24.2 mph N/A   Mostly Cloudy
8:35 PM 40.3 °F 32.6 °F 27.7 °F 61% 30.05 in 10.0 mi WNW 13.8 mph 24.2 mph N/A   Scattered Clouds
8:55 PM 41.0 °F 33.1 °F 27.3 °F 58% 30.05 in 10.0 mi NW 15.0 mph 27.6 mph N/A   Mostly Cloudy
9:15 PM 41.9 °F 33.4 °F 27.0 °F 55% 30.05 in 10.0 mi WNW 18.4 mph 28.8 mph N/A   Overcast
9:35 PM 40.5 °F 31.2 °F 28.2 °F 62% 30.06 in 10.0 mi WNW 19.6 mph 29.9 mph N/A   Overcast
9:55 PM 40.8 °F 32.0 °F 28.4 °F 61% 30.07 in 10.0 mi WNW 18.4 mph 38.0 mph N/A   Overcast
10:15 PM 40.3 °F 33.4 °F 28.9 °F 64% 30.07 in 10.0 mi NW 11.5 mph 27.6 mph N/A   Light Drizzle
10:35 PM 40.8 °F 33.7 °F 28.4 °F 61% 30.05 in 10.0 mi North 12.7 mph 26.5 mph N/A   Light Drizzle
11:15 PM 41.5 °F 36.4 °F 27.9 °F 58% 30.06 in 10.0 mi NNW 8.1 mph 20.7 mph N/A   Overcast
11:35 PM 41.5 °F 33.2 °F 28.0 °F 59% 30.05 in 10.0 mi North 17.3 mph 23.0 mph N/A   Overcast
11:55 PM 41.4 °F 36.8 °F 28.0 °F 59% 30.05 in 10.0 mi NNW 6.9 mph 17.3 mph N/A   Overcast